TimePST,TemperatureF,Dew PointF,Humidity,Sea Level PressureIn,VisibilityMPH,Wind Direction,Wind SpeedMPH,Gust SpeedMPH,PrecipitationIn,Events,Conditions,WindDirDegrees,DateUTC
12:53 AM,33.1,28.0,82,30.23,10.0,West,4.6,-,N/A,,Clear,270,2012-12-20 08:53:00
1:53 AM,30.0,27.0,88,30.22,10.0,ENE,3.5,-,N/A,,Clear,70,2012-12-20 09:53:00
2:53 AM,32.0,28.0,85,30.21,10.0,SSE,3.5,-,N/A,,Clear,150,2012-12-20 10:53:00
4:53 AM,28.9,25.0,85,30.20,10.0,Calm,Calm,-,N/A,,Clear,0,2012-12-20 12:53:00
5:53 AM,30.0,25.0,82,30.20,10.0,WNW,3.5,-,N/A,,Clear,290,2012-12-20 13:53:00
6:53 AM,32.0,26.1,79,30.21,10.0,Calm,Calm,-,N/A,,Clear,0,2012-12-20 14:53:00
7:53 AM,32.0,26.1,79,30.20,10.0,Calm,Calm,-,N/A,,Clear,0,2012-12-20 15:53:00
8:53 AM,36.0,28.9,76,30.20,10.0,Calm,Calm,-,N/A,,Clear,0,2012-12-20 16:53:00
9:53 AM,42.1,30.0,62,30.19,10.0,ESE,3.5,-,N/A,,Clear,110,2012-12-20 17:53:00
10:53 AM,51.1,30.0,44,30.16,10.0,Calm,Calm,-,N/A,,Clear,0,2012-12-20 18:53:00
11:53 AM,55.9,26.1,32,30.13,10.0,SSW,12.7,17.3,N/A,,Clear,210,2012-12-20 19:53:00
12:53 PM,57.0,26.1,30,30.09,10.0,South,13.8,19.6,N/A,,Clear,190,2012-12-20 20:53:00
1:53 PM,57.9,28.0,32,30.05,10.0,SSW,11.5,-,N/A,,Clear,200,2012-12-20 21:53:00
2:53 PM,57.9,27.0,31,30.04,10.0,South,12.7,-,N/A,,Scattered Clouds,190,2012-12-20 22:53:00
3:53 PM,55.9,28.0,34,30.04,10.0,SSW,9.2,17.3,N/A,,Scattered Clouds,200,2012-12-20 23:53:00
4:53 PM,54.0,25.0,33,30.03,10.0,South,5.8,-,N/A,,Scattered Clouds,180,2012-12-21 00:53:00
5:53 PM,52.0,23.0,32,30.04,10.0,South,5.8,-,N/A,,Clear,180,2012-12-21 01:53:00
6:53 PM,53.1,24.1,32,30.03,10.0,South,9.2,-,N/A,,Clear,190,2012-12-21 02:53:00
7:53 PM,50.0,27.0,41,30.04,10.0,Variable,3.5,-,N/A,,Clear,0,2012-12-21 03:53:00
8:53 PM,48.0,28.0,46,30.04,10.0,Calm,Calm,-,N/A,,Clear,0,2012-12-21 04:53:00
9:53 PM,50.0,27.0,41,30.04,10.0,SE,3.5,-,N/A,,Clear,130,2012-12-21 05:53:00
10:53 PM,50.0,27.0,41,30.03,10.0,South,4.6,-,N/A,,Clear,180,2012-12-21 06:53:00
11:53 PM,48.0,30.9,52,30.01,10.0,Calm,Calm,-,N/A,,Clear,0,2012-12-21 07:53:00